Showing default

KSM1-B, 46914

Orbit data source: Space-Track

KSM1-B, 46914 is a payload satellite owned by Kleos Space (LU) in LEO that was launched on Sat, 07 Nov 2020 UTC via a PSLV-DL launch vehicle from the Sirharikota (SRI). Payload-class satellites include a variety of spacecraft equipped with specific instruments for various scientific and technological missions. These include communications satellites like Starlink; space stations such as the ISS; scientific satellites like the Hubble; Earth observation satellites from companies like Planet Labs, Umbra, and HawkEye 360; GPS; miniature CubeSats for education and research; and military/defense satellites.

Loading next visibility...
Identifier
46914, 2020-081K
Orbit
LEO
Country
Flag of LULU / LUXE
Related business
Manufacturer
GOMSpace
Mission
Operational Commercial Sigint
Bus & Motor
CUBESAT 6U, Unknown motor
Mass
~10 kg wet, ~10 kg dry
Launch date (UTC)
2020-11-07 (5 years ago)
Launch vehicle
PSLV-DL
Launch site
Sirharikota (SRI)
Object type
Payload
Rocket body
Debris
Shape & HBR
Box, 1.0 m
Radar Cross Section
0.080 m², Small (<0.1 m²)

Expand to show TLE details & history
Last TLE update: 7 hours ago

TLE from 7 hours ago
0 KSM1-B
1 46914U 20081K   26127.81291980  .00005713  00000-0  23435-3 0  9997
2 46914  36.9026 316.8265 0006924 294.8671  65.1357 15.23971419306021
Epoch: 2026-05-07T19:30Z
TLE epoch observation values (Epoch: 2026-05-07T19:30:36.270Z)
Latitude
-0.00005°
Longitude
158.52163°
Altitude
490.986 km
Speed
7.623 km/s
True Right ascension
21h 07m 18s
True Declination
0° 00' 00"
Sunlit
Object was in daylight at epoch
Visualization orbit readout
Latitude
Unknown
Longitude
Unknown
Altitude
Unknown
Speed
Unknown
Apparent Right ascension
Unknown
Apparent Declination
Unknown
Sunlit
N/A
Visualization observer readout
Local Sidereal Time
10:05:38
Azimuth
Unknown
Elevation
Unknown
Doppler factor
Unknown
Orbital elements
Apogee altitude
501.584 km
Perigee altitude
492.064 km
Semi-major axis
6,874.961 km
Eccentricity
0.00069
Inclination
36.9026°
RAAN
316.8265°
Arg. of periapsis
294.8671°
True anomaly
65.20771°
Mean anomaly
65.1357°
Eccentric anomaly
65.1717°
Mean motion
3.80748 °/min
Orbital period
94.55 mins
BSTAR
0.00023435
Loading maneuver chart data...
Computing Atmospheric mass density...
Loading historical data...
Loading historical data...
Loading historical data...
Loading historical data...
Loading historical data...
Loading historical data...
Loading historical data...

Documentation

Showing up to 5 results
|